HFY380 LPBJ-LFBO

Flight info

Callsign HFY380
Flight time 1h 17m
Altitude 36000
Route EVURA DCT PORTA DCT OGERO Z409 TLD L184 RBO N870 SEGRE N871 RONNY/N0397F280 N871 TOPTU
Aircraft A388/J-SADE2E3FGHIJ3J4J5M1RWXYZ/LB1D1

Departure

Time 2026-05-04 19:54
Airport Beja Airport / Airbase (LPBJ)

Arrival

Time 2026-05-04 21:12
Airport Toulouse-Blagnac Airport (LFBO)
Time Latitude Longitude Altitude Speed Heading
2026-05-04 19:21 38.06567 -7.93996 632 ft 0 kts 231°
2026-05-04 19:45 38.06570 -7.93993 632 ft 3 kts 230°
2026-05-04 19:46 38.06587 -7.93972 643 ft 4 kts 213°
2026-05-04 19:46 38.06609 -7.93960 638 ft 4 kts 186°
2026-05-04 19:46 38.06632 -7.93964 636 ft 4 kts 158°
2026-05-04 19:46 38.06653 -7.93980 642 ft 3 kts 142°
2026-05-04 19:47 38.06657 -7.93984 642 ft 1 kts 141°
2026-05-04 19:49 38.06652 -7.93979 642 ft 3 kts 141°
2026-05-04 19:49 38.06616 -7.93942 645 ft 10 kts 141°
2026-05-04 19:50 38.06543 -7.93868 640 ft 17 kts 141°
2026-05-04 19:50 38.06461 -7.93785 643 ft 12 kts 141°
2026-05-04 19:50 38.06405 -7.93725 641 ft 12 kts 133°
2026-05-04 19:50 38.06375 -7.93609 636 ft 16 kts 97°
2026-05-04 19:51 38.06364 -7.93489 634 ft 10 kts 96°
2026-05-04 19:51 38.06391 -7.93435 639 ft 8 kts 16°
2026-05-04 19:51 38.06451 -7.93427 637 ft 5 kts
2026-05-04 19:51 38.06452 -7.93426 637 ft 0 kts
2026-05-04 19:53 38.06518 -7.93419 637 ft 44 kts
2026-05-04 19:53 38.07145 -7.93340 633 ft 130 kts
2026-05-04 19:54 38.08200 -7.93162 812 ft 164 kts
2026-05-04 19:54 38.09337 -7.92976 1323 ft 165 kts
2026-05-04 19:54 38.10498 -7.92843 1860 ft 170 kts
2026-05-04 19:54 38.11674 -7.92736 2455 ft 168 kts 359°
2026-05-04 19:55 38.12873 -7.92636 2830 ft 179 kts
2026-05-04 19:55 38.14161 -7.92580 3216 ft 197 kts 356°
2026-05-04 19:55 38.15639 -7.92583 3653 ft 225 kts 358°
2026-05-04 19:55 38.17310 -7.92585 4118 ft 255 kts 358°
2026-05-04 19:56 38.19122 -7.92561 4920 ft 262 kts 358°
2026-05-04 19:56 38.20974 -7.92527 5722 ft 272 kts 358°
2026-05-04 19:56 38.22895 -7.92474 6635 ft 281 kts 359°
2026-05-04 19:56 38.24870 -7.92387 7586 ft 285 kts 359°
2026-05-04 19:57 38.26833 -7.92307 8812 ft 280 kts 358°
2026-05-04 19:57 38.28795 -7.92254 9870 ft 285 kts 358°
2026-05-04 19:57 38.30804 -7.92210 10630 ft 297 kts 357°
2026-05-04 19:57 38.32920 -7.92168 10994 ft 319 kts 357°
2026-05-04 19:58 38.35215 -7.92118 11402 ft 337 kts 357°
2026-05-04 19:58 38.37580 -7.92055 12248 ft 341 kts 357°
2026-05-04 19:58 38.39966 -7.91989 13112 ft 345 kts 356°
2026-05-04 19:58 38.42379 -7.91926 13945 ft 349 kts 356°
2026-05-04 19:59 38.44828 -7.91864 14680 ft 353 kts 356°
2026-05-04 19:59 38.47298 -7.91801 15434 ft 358 kts 356°
2026-05-04 19:59 38.49801 -7.91737 16144 ft 362 kts 355°
2026-05-04 19:59 38.52332 -7.91673 16875 ft 366 kts 355°
2026-05-04 20:00 38.54895 -7.91608 17598 ft 370 kts 355°
2026-05-04 20:00 38.57479 -7.91604 18300 ft 373 kts 353°
2026-05-04 20:00 38.60083 -7.91675 18886 ft 376 kts 352°
2026-05-04 20:00 38.62710 -7.91756 19528 ft 379 kts 352°
2026-05-04 20:01 38.65376 -7.91490 20105 ft 393 kts
2026-05-04 20:01 38.68012 -7.90325 20707 ft 409 kts 20°
2026-05-04 20:01 38.70434 -7.88314 21245 ft 421 kts 30°
2026-05-04 20:01 38.72785 -7.86116 21763 ft 426 kts 30°
2026-05-04 20:02 38.75199 -7.83890 22331 ft 430 kts 29°
2026-05-04 20:02 38.77639 -7.81651 22861 ft 434 kts 29°
2026-05-04 20:02 38.80113 -7.79380 23404 ft 439 kts 29°
2026-05-04 20:02 38.82603 -7.77092 23891 ft 443 kts 29°
2026-05-04 20:03 38.85117 -7.74777 24364 ft 446 kts 29°
2026-05-04 20:03 38.87646 -7.72445 24829 ft 450 kts 29°
2026-05-04 20:03 38.90201 -7.70087 25324 ft 454 kts 28°
2026-05-04 20:03 38.92775 -7.67710 25803 ft 458 kts 28°
2026-05-04 20:04 38.95370 -7.65311 26320 ft 462 kts 28°
2026-05-04 20:04 38.97988 -7.62888 26844 ft 466 kts 28°
2026-05-04 20:04 39.00630 -7.60443 27383 ft 470 kts 28°
2026-05-04 20:04 39.03296 -7.57972 27930 ft 474 kts 28°
2026-05-04 20:05 39.05989 -7.55473 28482 ft 479 kts 28°
2026-05-04 20:05 39.08709 -7.52947 29037 ft 484 kts 27°
2026-05-04 20:05 39.11451 -7.50398 29621 ft 488 kts 27°
2026-05-04 20:05 39.14216 -7.47825 30164 ft 494 kts 27°
2026-05-04 20:06 39.17014 -7.45218 30669 ft 497 kts 27°
2026-05-04 20:06 39.19789 -7.42629 31199 ft 501 kts 27°
2026-05-04 20:06 39.22654 -7.39954 31705 ft 505 kts 28°
2026-05-04 20:06 39.25475 -7.37317 32202 ft 509 kts 28°
2026-05-04 20:07 39.28349 -7.34628 32702 ft 513 kts 28°
2026-05-04 20:07 39.31175 -7.31731 33170 ft 524 kts 35°
2026-05-04 20:07 39.33763 -7.28343 33705 ft 536 kts 43°
2026-05-04 20:07 39.36067 -7.24504 34143 ft 547 kts 50°
2026-05-04 20:08 39.38197 -7.20412 34559 ft 550 kts 51°
2026-05-04 20:08 39.40360 -7.16318 35071 ft 551 kts 50°
2026-05-04 20:08 39.42525 -7.12232 35724 ft 549 kts 51°
2026-05-04 20:08 39.44680 -7.08156 36407 ft 546 kts 51°
2026-05-04 20:09 39.46821 -7.04097 37092 ft 544 kts 51°
2026-05-04 20:09 39.48914 -7.00118 37724 ft 541 kts 51°
2026-05-04 20:09 39.51028 -6.96092 38430 ft 539 kts 52°
2026-05-04 20:09 39.53126 -6.92092 39008 ft 536 kts 52°
2026-05-04 20:10 39.55217 -6.88100 39508 ft 534 kts 52°
2026-05-04 20:10 39.57304 -6.84111 39903 ft 535 kts 52°
2026-05-04 20:10 39.59403 -6.80097 40025 ft 537 kts 52°
2026-05-04 20:11 39.63565 -6.72113 40036 ft 535 kts 52°
2026-05-04 20:11 39.67735 -6.64097 40027 ft 536 kts 53°
2026-05-04 20:12 39.71903 -6.56065 40028 ft 536 kts 53°
2026-05-04 20:12 39.76050 -6.48037 40020 ft 535 kts 54°
2026-05-04 20:13 39.79337 -6.39320 40014 ft 540 kts 69°
2026-05-04 20:13 39.81079 -6.29802 40012 ft 542 kts 83°
2026-05-04 20:14 39.81927 -6.20122 40006 ft 542 kts 83°
2026-05-04 20:14 39.82809 -6.10387 40001 ft 542 kts 83°
2026-05-04 20:15 39.83666 -6.00651 39995 ft 542 kts 83°
2026-05-04 20:15 39.84509 -5.90918 39998 ft 542 kts 83°
2026-05-04 20:16 39.85343 -5.81179 39991 ft 541 kts 83°
2026-05-04 20:16 39.86170 -5.71422 39983 ft 541 kts 84°
2026-05-04 20:17 39.86983 -5.61741 39980 ft 541 kts 84°
2026-05-04 20:17 39.87794 -5.51982 39985 ft 542 kts 84°
2026-05-04 20:18 39.88597 -5.42229 39973 ft 542 kts 84°
2026-05-04 20:18 39.89392 -5.32466 39980 ft 542 kts 84°
2026-05-04 20:19 39.90179 -5.22707 39977 ft 542 kts 84°
2026-05-04 20:19 39.90957 -5.12938 39981 ft 542 kts 84°
2026-05-04 20:20 39.91727 -5.03171 39979 ft 542 kts 84°
2026-05-04 20:20 39.92490 -4.93400 39979 ft 542 kts 84°
2026-05-04 20:21 39.93244 -4.83629 39979 ft 542 kts 84°
2026-05-04 20:21 39.94356 -4.69013 39983 ft 542 kts 85°
2026-05-04 20:22 39.95090 -4.59228 39983 ft 542 kts 85°
2026-05-04 20:22 39.95692 -4.51086 39984 ft 542 kts 85°
2026-05-04 20:23 39.96606 -4.41339 39982 ft 542 kts 76°
2026-05-04 20:23 39.99444 -4.32295 39986 ft 539 kts 56°
2026-05-04 20:24 40.04229 -4.24901 39991 ft 531 kts 39°
2026-05-04 20:24 40.09663 -4.18338 39987 ft 532 kts 39°
2026-05-04 20:25 40.15043 -4.11774 39987 ft 532 kts 40°
2026-05-04 20:25 40.20460 -4.05156 39987 ft 532 kts 40°
2026-05-04 20:26 40.25867 -3.98538 39995 ft 532 kts 40°
2026-05-04 20:26 40.31286 -3.91892 39991 ft 533 kts 40°
2026-05-04 20:27 40.36690 -3.85248 39996 ft 533 kts 40°
2026-05-04 20:27 40.42099 -3.78583 39985 ft 533 kts 40°
2026-05-04 20:28 40.47466 -3.71954 39999 ft 533 kts 40°
2026-05-04 20:28 40.52873 -3.65260 40002 ft 533 kts 40°
2026-05-04 20:29 40.58283 -3.58549 39999 ft 533 kts 40°
2026-05-04 20:29 40.63672 -3.51845 39993 ft 533 kts 40°
2026-05-04 20:30 40.69069 -3.45118 39984 ft 534 kts 40°
2026-05-04 20:30 40.74457 -3.38385 39999 ft 534 kts 40°
2026-05-04 20:31 40.79813 -3.31671 39985 ft 533 kts 42°
2026-05-04 20:31 40.84387 -3.23922 40006 ft 538 kts 59°
2026-05-04 20:32 40.87317 -3.14841 39984 ft 539 kts 75°
2026-05-04 20:32 40.89197 -3.05239 39995 ft 539 kts 75°
2026-05-04 20:33 40.91090 -2.95708 39983 ft 539 kts 76°
2026-05-04 20:33 40.92970 -2.86114 40000 ft 539 kts 76°
2026-05-04 20:34 40.94835 -2.76512 39984 ft 539 kts 76°
2026-05-04 20:34 40.96690 -2.66913 39996 ft 539 kts 76°
2026-05-04 20:35 40.98539 -2.57300 40005 ft 539 kts 76°
2026-05-04 20:35 41.00381 -2.47675 40000 ft 539 kts 75°
2026-05-04 20:36 41.03390 -2.38628 39991 ft 538 kts 55°
2026-05-04 20:36 41.08303 -2.31256 40007 ft 532 kts 36°
2026-05-04 20:37 41.14079 -2.25158 39992 ft 531 kts 36°
2026-05-04 20:37 41.19845 -2.19008 40006 ft 531 kts 36°
2026-05-04 20:38 41.25597 -2.12864 40023 ft 531 kts 36°
2026-05-04 20:38 41.31321 -2.06742 40028 ft 531 kts 36°
2026-05-04 20:39 41.37073 -2.00578 40025 ft 531 kts 36°
2026-05-04 20:39 41.42820 -1.94404 40022 ft 530 kts 36°
2026-05-04 20:40 41.48560 -1.88224 40010 ft 531 kts 36°
2026-05-04 20:40 41.54310 -1.82018 40015 ft 530 kts 36°
2026-05-04 20:41 41.60036 -1.75822 40011 ft 530 kts 36°
2026-05-04 20:41 41.65769 -1.69605 40017 ft 530 kts 36°
2026-05-04 20:42 41.71500 -1.63374 40015 ft 530 kts 37°
2026-05-04 20:42 41.77215 -1.57148 40015 ft 530 kts 37°
2026-05-04 20:43 41.82890 -1.50951 40016 ft 529 kts 37°
2026-05-04 20:43 41.88591 -1.44709 40016 ft 529 kts 37°
2026-05-04 20:44 41.94285 -1.38461 40006 ft 528 kts 37°
2026-05-04 20:44 41.99976 -1.32201 40002 ft 528 kts 37°
2026-05-04 20:45 42.05661 -1.25933 39999 ft 528 kts 37°
2026-05-04 20:45 42.11337 -1.19662 39999 ft 528 kts 37°
2026-05-04 20:46 42.17010 -1.13377 39998 ft 527 kts 37°
2026-05-04 20:46 42.22671 -1.07090 39995 ft 527 kts 37°
2026-05-04 20:47 42.28338 -1.00783 39994 ft 527 kts 38°
2026-05-04 20:47 42.33961 -0.94509 39991 ft 527 kts 38°
2026-05-04 20:48 42.39608 -0.88185 39994 ft 527 kts 39°
2026-05-04 20:48 42.44763 -0.81115 39991 ft 529 kts 49°
2026-05-04 20:49 42.49272 -0.73242 39992 ft 529 kts 51°
2026-05-04 20:49 42.53778 -0.65366 39980 ft 529 kts 51°
2026-05-04 20:50 42.56018 -0.61430 39807 ft 524 kts 52°
2026-05-04 20:50 42.58226 -0.57533 39576 ft 520 kts 52°
2026-05-04 20:50 42.60428 -0.53639 39354 ft 520 kts 52°
2026-05-04 20:50 42.62628 -0.49742 39114 ft 520 kts 52°
2026-05-04 20:51 42.64833 -0.45829 38534 ft 521 kts 52°
2026-05-04 20:51 42.67015 -0.41952 37615 ft 524 kts 52°
2026-05-04 20:51 42.69257 -0.37962 36691 ft 526 kts 52°
2026-05-04 20:51 42.71482 -0.34000 35632 ft 529 kts 53°
2026-05-04 20:52 42.73700 -0.30043 34614 ft 533 kts 53°
2026-05-04 20:52 42.75947 -0.26028 33638 ft 534 kts 53°
2026-05-04 20:52 42.78182 -0.22031 32924 ft 527 kts 53°
2026-05-04 20:52 42.80382 -0.18091 32466 ft 515 kts 53°
2026-05-04 20:53 42.82523 -0.14234 31793 ft 508 kts 53°
2026-05-04 20:53 42.84635 -0.10409 31131 ft 502 kts 53°
2026-05-04 20:53 42.86724 -0.06619 30484 ft 497 kts 53°
2026-05-04 20:53 42.88787 -0.02873 29792 ft 492 kts 53°
2026-05-04 20:54 42.90829 0.00836 29141 ft 485 kts 54°
2026-05-04 20:54 42.92837 0.04485 28500 ft 478 kts 53°
2026-05-04 20:54 42.94816 0.08087 27860 ft 471 kts 54°
2026-05-04 20:54 42.96763 0.11635 27247 ft 464 kts 54°
2026-05-04 20:55 42.98688 0.15146 26620 ft 458 kts 54°
2026-05-04 20:55 43.00586 0.18614 25996 ft 452 kts 54°
2026-05-04 20:55 43.02459 0.22040 25389 ft 447 kts 54°
2026-05-04 20:55 43.04310 0.25427 24782 ft 442 kts 54°
2026-05-04 20:56 43.06140 0.28783 24172 ft 438 kts 54°
2026-05-04 20:56 43.07952 0.32109 23562 ft 434 kts 54°
2026-05-04 20:56 43.09723 0.35362 22919 ft 429 kts 54°
2026-05-04 20:56 43.11515 0.38655 22317 ft 423 kts 54°
2026-05-04 20:57 43.13236 0.41825 21730 ft 417 kts 54°
2026-05-04 20:57 43.14955 0.44991 21145 ft 412 kts 54°
2026-05-04 20:57 43.16655 0.48128 20558 ft 407 kts 54°
2026-05-04 20:57 43.18195 0.51362 19710 ft 407 kts 65°
2026-05-04 20:58 43.19173 0.55013 18565 ft 411 kts 74°
2026-05-04 20:58 43.19995 0.58789 17429 ft 412 kts 75°
2026-05-04 20:58 43.20794 0.62518 16486 ft 404 kts 75°
2026-05-04 20:58 43.21592 0.66186 15537 ft 398 kts 74°
2026-05-04 20:59 43.22392 0.69794 14601 ft 393 kts 74°
2026-05-04 20:59 43.23186 0.73353 13675 ft 387 kts 74°
2026-05-04 20:59 43.23971 0.76861 12739 ft 381 kts 74°
2026-05-04 20:59 43.24744 0.80317 11801 ft 375 kts 74°
2026-05-04 21:00 43.25503 0.83713 10907 ft 369 kts 74°
2026-05-04 21:00 43.26247 0.87046 10350 ft 358 kts 75°
2026-05-04 21:00 43.26955 0.90220 10200 ft 338 kts 75°
2026-05-04 21:00 43.27624 0.93223 10033 ft 322 kts 75°
2026-05-04 21:01 43.28263 0.96103 9856 ft 307 kts 75°
2026-05-04 21:01 43.28874 0.98863 9371 ft 299 kts 74°
2026-05-04 21:01 43.29478 1.01598 8881 ft 300 kts 74°
2026-05-04 21:01 43.30082 1.04334 8392 ft 299 kts 73°
2026-05-04 21:02 43.30673 1.07009 8101 ft 294 kts 73°
2026-05-04 21:02 43.31265 1.09695 7774 ft 288 kts 72°
2026-05-04 21:02 43.31836 1.12284 7438 ft 284 kts 72°
2026-05-04 21:02 43.32405 1.14866 7096 ft 281 kts 72°
2026-05-04 21:03 43.32967 1.17423 6777 ft 278 kts 72°
2026-05-04 21:03 43.33522 1.19949 6451 ft 275 kts 71°
2026-05-04 21:03 43.34071 1.22453 6097 ft 273 kts 71°
2026-05-04 21:03 43.34614 1.24928 5756 ft 270 kts 71°
2026-05-04 21:04 43.35152 1.27385 5442 ft 267 kts 71°
2026-05-04 21:04 43.35683 1.29814 5120 ft 266 kts 71°
2026-05-04 21:04 43.36220 1.32271 5005 ft 270 kts 71°
2026-05-04 21:04 43.36747 1.34690 5004 ft 256 kts 71°
2026-05-04 21:05 43.37236 1.36949 4983 ft 238 kts 70°
2026-05-04 21:05 43.37693 1.39056 5000 ft 222 kts 70°
2026-05-04 21:05 43.38116 1.41010 5009 ft 211 kts 70°
2026-05-04 21:05 43.38557 1.43016 4989 ft 232 kts 70°
2026-05-04 21:06 43.39040 1.45209 4983 ft 247 kts 70°
2026-05-04 21:06 43.39725 1.47349 5006 ft 244 kts 49°
2026-05-04 21:06 43.41008 1.48778 5007 ft 235 kts 25°
2026-05-04 21:06 43.42465 1.49803 4991 ft 234 kts 22°
2026-05-04 21:07 43.43926 1.50780 4914 ft 233 kts 22°
2026-05-04 21:07 43.45367 1.51767 4746 ft 229 kts 21°
2026-05-04 21:07 43.46896 1.52163 4247 ft 224 kts 346°
2026-05-04 21:07 43.48286 1.51310 3908 ft 218 kts 325°
2026-05-04 21:08 43.49527 1.50082 3598 ft 218 kts 321°
2026-05-04 21:08 43.50733 1.48812 3284 ft 218 kts 322°
2026-05-04 21:08 43.51937 1.47565 2992 ft 214 kts 321°
2026-05-04 21:08 43.53112 1.46345 2719 ft 210 kts 321°
2026-05-04 21:09 43.54273 1.45137 2435 ft 207 kts 321°
2026-05-04 21:09 43.55371 1.44001 2195 ft 188 kts 320°
2026-05-04 21:09 43.56396 1.42930 1914 ft 175 kts 320°
2026-05-04 21:09 43.57301 1.41995 1685 ft 149 kts 319°
2026-05-04 21:10 43.58049 1.41215 1488 ft 133 kts 319°
2026-05-04 21:10 43.58768 1.40453 1313 ft 131 kts 318°
2026-05-04 21:10 43.59500 1.39708 1122 ft 129 kts 320°
2026-05-04 21:10 43.60185 1.38986 959 ft 128 kts 319°
2026-05-04 21:11 43.60901 1.38240 787 ft 129 kts 319°
2026-05-04 21:11 43.61624 1.37485 628 ft 132 kts 318°
2026-05-04 21:11 43.62352 1.36731 500 ft 126 kts 319°
2026-05-04 21:11 43.62750 1.36307 499 ft 93 kts 322°
2026-05-04 21:12 43.63110 1.35948 499 ft 35 kts 323°
2026-05-04 21:12 43.63246 1.35808 499 ft 21 kts 322°
2026-05-04 21:12 43.63388 1.35659 499 ft 18 kts 323°
2026-05-04 21:12 43.63453 1.35591 499 ft 17 kts 323°
2026-05-04 21:13 43.63544 1.35500 499 ft 16 kts 324°
2026-05-04 21:13 43.63628 1.35414 499 ft 15 kts 323°
2026-05-04 21:13 43.63716 1.35321 499 ft 17 kts 322°
2026-05-04 21:13 43.63814 1.35218 499 ft 17 kts 323°
2026-05-04 21:14 43.63910 1.35123 499 ft 17 kts 324°
2026-05-04 21:14 43.63989 1.35039 499 ft 9 kts 321°
2026-05-04 21:14 43.64036 1.34998 499 ft 8 kts 352°
2026-05-04 21:14 43.64080 1.35016 499 ft 8 kts 44°
2026-05-04 21:15 43.64131 1.35119 499 ft 17 kts 55°
2026-05-04 21:15 43.64209 1.35258 499 ft 16 kts 52°
2026-05-04 21:15 43.64278 1.35380 499 ft 14 kts 52°
2026-05-04 21:15 43.64344 1.35432 499 ft 9 kts 348°
2026-05-04 21:16 43.64406 1.35384 499 ft 11 kts 322°
2026-05-04 21:16 43.64481 1.35351 499 ft 13 kts
2026-05-04 21:16 43.64576 1.35371 499 ft 6 kts
2026-05-04 21:16 43.64577 1.35371 499 ft 0 kts
2026-05-04 21:20 43.64585 1.35373 499 ft 10 kts
2026-05-04 21:20 43.64690 1.35396 499 ft 16 kts
2026-05-04 21:20 43.64765 1.35411 499 ft 13 kts
2026-05-04 21:21 43.64842 1.35417 499 ft 16 kts 356°
2026-05-04 21:21 43.64950 1.35404 499 ft 16 kts 354°
2026-05-04 21:21 43.65057 1.35389 499 ft 16 kts 354°
2026-05-04 21:21 43.65163 1.35375 499 ft 10 kts 354°
2026-05-04 21:22 43.65220 1.35367 499 ft 10 kts 354°
2026-05-04 21:22 43.65276 1.35397 499 ft 8 kts 62°
2026-05-04 21:22 43.65288 1.35455 499 ft 7 kts 80°
2026-05-04 21:22 43.65291 1.35487 499 ft 3 kts 82°